Bogalusa, LA

3:55 PM CDT on March 27, 2017 (GMT -0500)
Carr Memorial

Weather History for KBXA - May, 2013

Change the Weather History Date:

Friday, May 3, 2013

  Actual Average Record
Temperature  
Mean Temperature 58 °F -  
Max Temperature 71 °F 80 °F 84 °F (2014)
Min Temperature 46 °F 59 °F 46 °F (2013)
Degree Days  
Heating Degree Days 6    
Growing Degree Days 8 (Base 50)    
Moisture  
Dew Point 56 °F    
Average Humidity 83    
Maximum Humidity 90    
Minimum Humidity 73    
Precipitation  
Precipitation 0.04 in - - ()
Sea Level Pressure  
Sea Level Pressure 29.96 in    
Wind  
Wind Speed 4 mph (NNW)    
Max Wind Speed 16 mph    
Max Gust Speed 26 mph    
Visibility 10 miles    
Events Rain    
Averages and records for this station are not official NWS values.
T = Trace of Precipitation, MM = Missing Value Source: NWS Daily Summary

Daily Weather History Graph

Daily Weather History Graph

Search for Another Location

Airport or City:

Trip Planner

Search our weather history database for the weather conditions in past years. The results will help you decide how hot, cold, wet, or windy it might be!

Date:

Astronomy

May. 03, 2013 Rise Set
Actual Time 6:13 AM CDT 7:39 PM CDT
Civil Twilight 5:47 AM CDT 8:05 PM CDT
Nautical Twilight 5:16 AM CDT 8:36 PM CDT
Astronomical Twilight 4:44 AM CDT 9:08 PM CDT
Moon 2:12 AM CDT (5/3) 1:57 PM CDT (5/3)
Length of Visible Light 14h 17m
Length of Day
13h 26m
Last Quarter, 37% of the Moon is Illuminated
May 3
Last Quarter
May 9
New
May 17
First Quarter
May 24
Full
May 31
Last Quarter

Hourly Weather History & Observations

Time (CDT) Temp. Windchill Dew Point Humidity Pressure Visibility Wind Dir Wind Speed Gust Speed Precip Events Conditions
12:15 AM 68.0 °F - 64.6 °F 89% 29.96 in 10.0 mi Calm Calm - N/A   Unknown
12:35 AM 67.5 °F - 64.4 °F 90% 29.95 in 10.0 mi Calm Calm - N/A   Unknown
12:55 AM 67.5 °F - 64.2 °F 89% 29.95 in 10.0 mi Calm Calm - N/A   Unknown
1:15 AM 67.3 °F - 64.2 °F 90% 29.94 in 10.0 mi Calm Calm - N/A   Unknown
1:35 AM 67.3 °F - 64.4 °F 90% 29.94 in 7.0 mi North 3.5 mph - N/A   Unknown
1:55 AM 67.6 °F - 64.6 °F 90% 29.93 in 10.0 mi Calm Calm - N/A   Unknown
2:15 AM 67.6 °F - 64.6 °F 90% 29.92 in 10.0 mi Calm Calm - N/A   Unknown
2:35 AM 67.8 °F - 64.6 °F 89% 29.92 in 10.0 mi Calm Calm - N/A   Unknown
2:55 AM 68.9 °F - 64.6 °F 86% 29.92 in 10.0 mi Calm Calm - N/A   Unknown
3:15 AM 68.9 °F - 64.8 °F 87% 29.91 in 10.0 mi Calm Calm - N/A   Unknown
3:35 AM 68.4 °F - 64.8 °F 88% 29.91 in 10.0 mi Calm Calm - N/A   Unknown
3:55 AM 68.5 °F - 64.8 °F 88% 29.91 in 10.0 mi Calm Calm - N/A   Unknown
4:15 AM 68.9 °F - 64.6 °F 86% 29.92 in 10.0 mi Calm Calm - N/A   Unknown
4:35 AM 68.9 °F - 64.4 °F 86% 29.92 in 10.0 mi Calm Calm - N/A   Unknown
4:55 AM 68.9 °F - 64.4 °F 86% 29.91 in 10.0 mi Calm Calm - N/A   Unknown
5:15 AM 68.5 °F - 64.4 °F 87% 29.91 in 10.0 mi Calm Calm - N/A   Unknown
5:35 AM 68.5 °F - 64.4 °F 87% 29.91 in 10.0 mi Calm Calm - N/A   Unknown
5:55 AM 68.2 °F - 64.4 °F 88% 29.91 in 10.0 mi Calm Calm - N/A   Unknown
6:15 AM 68.5 °F - 64.0 °F 85% 29.92 in 10.0 mi Calm Calm - N/A   Unknown
6:35 AM 68.4 °F - 64.2 °F 87% 29.92 in 10.0 mi Calm Calm - N/A   Unknown
6:55 AM 68.5 °F - 64.0 °F 85% 29.93 in 10.0 mi Calm Calm - N/A   Unknown
7:15 AM 68.5 °F - 64.0 °F 85% 29.92 in 10.0 mi North - - N/A   Unknown
7:35 AM 68.9 °F - 64.0 °F 84% 29.92 in 10.0 mi Calm Calm - N/A   Unknown
7:55 AM 69.3 °F - 63.9 °F 83% 29.93 in 10.0 mi Calm Calm - N/A   Unknown
8:15 AM 69.8 °F - 63.9 °F 81% 29.93 in 10.0 mi East 3.5 mph - N/A   Unknown
8:35 AM 70.7 °F - 64.4 °F 80% 29.92 in 10.0 mi East 4.6 mph - N/A   Unknown
8:55 AM 71.6 °F - 63.9 °F 76% 29.93 in 10.0 mi ESE 6.9 mph - N/A   Unknown
9:15 AM 71.2 °F - 63.7 °F 77% 29.93 in 10.0 mi ESE 5.8 mph - N/A   Unknown
9:35 AM 71.1 °F - 63.5 °F 77% 29.93 in 10.0 mi SE 3.5 mph - N/A   Unknown
9:55 AM 71.6 °F - 63.7 °F 76% 29.93 in 10.0 mi SSE 5.8 mph - N/A   Unknown
10:15 AM 64.4 °F - 59.0 °F 83% 29.94 in 10.0 mi WNW 13.8 mph 19.6 mph N/A Rain Rain
10:35 AM 62.1 °F - 58.1 °F 87% 29.95 in 4.0 mi NW 9.2 mph - 0.02 in   Heavy Drizzle
11:15 AM 61.9 °F - 57.9 °F 87% 29.95 in 7.0 mi NW 10.4 mph - N/A   Overcast
11:35 AM 62.1 °F - 57.4 °F 85% 29.95 in 10.0 mi NW 11.5 mph 16.1 mph N/A   Overcast
11:55 AM 62.1 °F - 57.4 °F 85% 29.95 in 10.0 mi NW 11.5 mph - N/A   Overcast
12:35 PM 62.1 °F - 58.3 °F 87% 29.94 in 3.0 mi NNW 8.1 mph - 0.02 in   Light Drizzle
12:55 PM 61.5 °F - 57.0 °F 85% 29.94 in 7.0 mi NW 10.4 mph 17.3 mph 0.02 in   Overcast
1:15 PM 61.7 °F - 56.7 °F 84% 29.93 in 7.0 mi NNW 11.5 mph 16.1 mph N/A   Overcast
1:35 PM 61.7 °F - 56.3 °F 82% 29.94 in 10.0 mi NW 11.5 mph - N/A   Overcast
1:55 PM 60.8 °F - 55.6 °F 83% 29.94 in 10.0 mi NW 12.7 mph - N/A   Overcast
2:15 PM 59.9 °F - 55.0 °F 84% 29.95 in 10.0 mi NW 12.7 mph 16.1 mph N/A   Overcast
2:35 PM 61.0 °F - 54.1 °F 78% 29.94 in 10.0 mi NW 10.4 mph 17.3 mph N/A   Overcast
2:55 PM 59.7 °F - 53.2 °F 79% 29.95 in 10.0 mi North - - N/A   Overcast
3:15 PM 58.5 °F - 52.7 °F 81% 29.95 in 10.0 mi NNW 13.8 mph 18.4 mph N/A   Overcast
3:35 PM 58.1 °F - 51.3 °F 78% 29.94 in 10.0 mi NNW 13.8 mph 19.6 mph N/A   Overcast
3:55 PM 57.6 °F - 52.3 °F 83% 29.94 in 10.0 mi NW 10.4 mph 17.3 mph N/A   Overcast
4:15 PM 56.8 °F - 52.9 °F 87% 29.94 in 4.0 mi NW 11.5 mph - N/A Rain Light Rain
4:35 PM 56.5 °F - 52.5 °F 87% 29.94 in 5.0 mi NNW 12.7 mph - N/A   Light Drizzle
4:55 PM 56.7 °F - 52.3 °F 85% 29.94 in 10.0 mi NNW 10.4 mph 19.6 mph N/A   Overcast
5:15 PM 57.0 °F - 52.2 °F 84% 29.95 in 10.0 mi NNW 10.4 mph - N/A   Overcast
5:35 PM 57.2 °F - 51.3 °F 81% 29.95 in 10.0 mi NNW 12.7 mph 17.3 mph N/A   Overcast
5:55 PM 56.7 °F - 49.5 °F 77% 29.95 in 10.0 mi NNW 16.1 mph 20.7 mph N/A   Overcast
6:15 PM 55.9 °F - 49.5 °F 79% 29.96 in 10.0 mi NNW 13.8 mph 19.6 mph N/A   Mostly Cloudy
6:35 PM 54.9 °F - 48.4 °F 79% 29.97 in 10.0 mi NNW 16.1 mph 20.7 mph N/A   Scattered Clouds
6:55 PM 54.3 °F - 47.8 °F 79% 29.98 in 10.0 mi NW 13.8 mph 18.4 mph N/A   Unknown
7:15 PM 53.2 °F - 46.2 °F 77% 29.99 in 10.0 mi NNW 13.8 mph 26.5 mph N/A   Unknown
7:35 PM 52.9 °F - 46.4 °F 79% 30.00 in 10.0 mi NNW 11.5 mph 17.3 mph N/A   Unknown
7:55 PM 52.2 °F - 45.0 °F 76% 30.01 in 10.0 mi NNW 13.8 mph 26.5 mph N/A   Unknown
8:15 PM 51.8 °F - 44.2 °F 75% 30.03 in 10.0 mi North 16.1 mph 25.3 mph N/A   Unknown
8:35 PM 51.3 °F - 44.2 °F 77% 30.03 in 10.0 mi North 15.0 mph 24.2 mph N/A   Unknown
8:55 PM 51.1 °F - 43.2 °F 74% 30.04 in 10.0 mi NNW 13.8 mph 20.7 mph N/A   Unknown
9:15 PM 50.7 °F - 42.4 °F 73% 30.05 in 10.0 mi North 15.0 mph - N/A   Unknown
9:35 PM 50.0 °F - 41.5 °F 73% 30.05 in 10.0 mi North 10.4 mph - N/A   Unknown
9:55 PM 49.1 °F - 41.9 °F 76% 30.05 in 10.0 mi North 6.9 mph - N/A   Unknown
10:15 PM 48.6 °F - 41.9 °F 78% 30.05 in 10.0 mi North 6.9 mph - N/A   Clear
10:35 PM 47.8 °F - 42.1 °F 80% 30.06 in 10.0 mi North 6.9 mph - N/A   Clear
10:55 PM 47.3 °F - 42.3 °F 83% 30.05 in 10.0 mi North 5.8 mph - N/A   Clear
11:15 PM 46.9 °F - 42.1 °F 83% 30.05 in 10.0 mi North 4.6 mph - N/A   Unknown
11:35 PM 46.8 °F - 41.9 °F 83% 30.05 in 10.0 mi North 4.6 mph - N/A   Unknown
11:55 PM 46.0 °F 44.8 °F 41.9 °F 85% 30.05 in 10.0 mi North 3.5 mph - N/A   Unknown